20041121,000007,1582773,32.706623,-117.236257,3.8,16.605,32.950,42.167,203.46,0.0,6.095, NaN, NaN, NaN,24.033,   NaN,16.68,1009.37,72.24,16.47,70.7,68.6,4.7,4.8,199.7,197.5,4.7,4.8,NaN, NaN,29.4,324.9,271.2,1100995209,1100995205,1,0.0,000008,000005,128.8,32.706630,-117.236125,NaN,NaN,NaN,16.609, NaN,NaN,NaN, NaN, NaN
20041121,000037,1582802,32.706621,-117.236258,3.9,16.605,32.950,42.166,201.49,0.0,6.033, NaN, NaN, NaN,24.033,   NaN,16.68,1009.40,72.48,16.47,71.4,70.3,4.4,4.6,200.2,199.0,4.4,4.6,NaN, NaN,29.4,324.9,271.2,1100995238,1100995235,1,0.1,000038,000035,128.6,32.706630,-117.236118,NaN,NaN,NaN,16.609, NaN,NaN,NaN, NaN, NaN
20041121,000108,1582834,32.706623,-117.236262,3.9,16.586,32.858,42.043,196.95,0.0,6.018, NaN, NaN, NaN,23.967,   NaN,16.67,1009.39,72.69,16.47,64.9,62.4,4.8,4.9,193.6,191.1,4.8,4.9,NaN, NaN,29.3,324.9,271.2,1100995269,1100995265,1,0.0,000068,000070,129.1,32.706625,-117.236118,NaN,NaN,NaN,16.590, NaN,NaN,NaN, NaN, NaN
20041121,000138,1582863,32.706623,-117.236258,3.8,16.576,32.939,42.126,195.23,0.0,6.030, NaN, NaN, NaN,24.031,   NaN,16.63,1009.35,72.70,16.44,59.9,55.0,5.5,5.6,188.8,183.9,5.5,5.6,NaN, NaN,28.9,324.9,271.2,1100995299,1100995295,1,0.0,000098,000100,128.9,32.706630,-117.236123,NaN,NaN,NaN,16.580, NaN,NaN,NaN, NaN, NaN
20041121,000207,1582892,32.706621,-117.236253,3.9,16.585,32.934,42.130,190.10,0.0,6.117, NaN, NaN, NaN,24.026,   NaN,16.59,1009.41,72.80,16.44,60.0,54.8,5.8,5.8,188.9,183.7,5.8,5.8,NaN, NaN,29.3,324.9,271.2,1100995329,1100995325,1,0.1,000128,000125,128.6,32.706623,-117.236122,NaN,NaN,NaN,16.589, NaN,NaN,NaN, NaN, NaN
20041121,000239,1582925,32.706623,-117.236257,3.9,16.599,32.948,42.158,185.10,0.0,6.189, NaN, NaN, NaN,24.033,   NaN,16.60,1009.35,72.88,16.36,60.5,56.1,6.0,6.1,189.2,184.8,6.0,6.1,NaN, NaN,29.9,324.9,271.2,1100995359,1100995360,1,0.0,000159,000160,128.7,32.706625,-117.236128,NaN,NaN,NaN,16.603, NaN,NaN,NaN, NaN, NaN
20041121,000308,1582953,32.706621,-117.236257,3.8,16.611,32.935,42.154,180.86,0.0,6.218, NaN, NaN, NaN,24.020,   NaN,16.59,1009.37,72.95,16.32,62.6,59.1,6.1,6.0,191.3,187.7,6.1,6.0,NaN, NaN,29.0,324.9,271.2,1100995389,1100995385,1,0.0,000188,000190,128.8,32.706631,-117.236112,NaN,NaN,NaN,16.615, NaN,NaN,NaN, NaN, NaN
20041121,000338,1582984,32.706623,-117.236257,3.9,16.638,32.932,42.177,181.39,0.0,6.181, NaN, NaN, NaN,24.012,   NaN,16.59,1009.39,73.02,16.32,66.8,63.7,5.7,5.6,195.6,192.5,5.7,5.6,NaN, NaN,29.1,324.9,271.2,1100995419,1100995420,1,0.1,000218,000220,129.0,32.706630,-117.236107,NaN,NaN,NaN,16.642, NaN,NaN,NaN, NaN, NaN
20041121,000407,1583012,32.706621,-117.236258,3.9,16.667,32.932,42.204,177.08,0.0,6.133, NaN, NaN, NaN,24.005,   NaN,16.65,1009.41,73.43,16.32,67.0,63.8,4.9,4.9,196.0,192.8,4.9,4.9,NaN, NaN,28.9,324.9,271.2,1100995449,1100995445,1,0.1,000248,000245,128.9,32.706633,-117.236105,NaN,NaN,NaN,16.671, NaN,NaN,NaN, NaN, NaN
20041121,000439,1583044,32.706621,-117.236258,3.8,16.696,32.929,42.229,170.51,0.0,5.740, NaN, NaN, NaN,23.996,   NaN,16.65,1009.41,73.43,16.36,65.4,61.7,4.3,4.4,194.3,190.6,4.3,4.4,NaN, NaN,29.3,324.9,271.2,1100995479,1100995475,1,0.0,000278,000280,128.8,32.706630,-117.236098,NaN,NaN,NaN,16.700, NaN,NaN,NaN, NaN, NaN
20041121,000508,1583073,32.706618,-117.236258,3.8,16.731,32.929,42.261,160.63,0.0,5.584, NaN, NaN, NaN,23.988,   NaN,16.65,1009.43,73.49,16.32,65.8,62.2,4.3,4.4,194.6,190.9,4.3,4.4,NaN, NaN,29.2,324.9,271.2,1100995509,1100995505,1,0.1,000308,000310,128.4,32.706623,-117.236107,NaN,NaN,NaN,16.735, NaN,NaN,NaN, NaN, NaN
20041121,000538,1583103,32.706616,-117.236257,3.9,16.752,32.919,42.269,156.59,0.0,5.401, NaN, NaN, NaN,23.975,   NaN,16.66,1009.42,73.65,16.36,63.5,58.7,4.2,4.3,192.1,187.3,4.2,4.3,NaN, NaN,28.6,324.9,271.2,1100995539,1100995535,1,0.0,000338,000340,128.4,32.706621,-117.236115,NaN,NaN,NaN,16.756, NaN,NaN,NaN, NaN, NaN
20041121,000607,1583132,32.706620,-117.236267,3.9,16.752,32.934,42.287,153.21,0.0,5.381, NaN, NaN, NaN,23.987,   NaN,16.57,1009.37,72.97,16.29,62.0,57.0,5.0,5.0,190.5,185.5,5.0,5.0,NaN, NaN,28.4,324.9,271.2,1100995569,1100995565,1,0.0,000368,000365,128.8,32.706626,-117.236122,NaN,NaN,NaN,16.756, NaN,NaN,NaN, NaN, NaN
20041121,000637,1583162,32.706620,-117.236267,3.9,16.732,32.929,42.263,149.32,0.0,5.661, NaN, NaN, NaN,23.987,   NaN,16.54,1009.37,73.17,16.21,63.2,58.5,5.7,5.8,191.9,187.2,5.7,5.8,NaN, NaN,27.8,324.9,271.2,1100995598,1100995595,1,0.0,000398,000395,129.0,32.706631,-117.236122,NaN,NaN,NaN,16.736, NaN,NaN,NaN, NaN, NaN
20041121,000708,1583193,32.706618,-117.236262,3.9,16.710,32.934,42.248,145.98,0.0,5.442, NaN, NaN, NaN,23.997,   NaN,16.59,1009.41,73.38,16.24,64.6,61.4,5.4,5.4,193.5,190.3,5.4,5.4,NaN, NaN,27.7,324.9,271.2,1100995629,1100995625,1,0.0,000428,000430,128.7,32.706640,-117.236125,NaN,NaN,NaN,16.714, NaN,NaN,NaN, NaN, NaN
20041121,000738,1583223,32.706615,-117.236262,3.9,16.701,32.900,42.200,143.13,0.0,5.646, NaN, NaN, NaN,23.973,   NaN,16.61,1009.41,73.51,16.28,63.7,61.2,4.6,4.7,192.5,189.9,4.6,4.7,NaN, NaN,27.3,324.9,271.2,1100995659,1100995655,1,0.1,000458,000460,128.2,32.706640,-117.236128,NaN,NaN,NaN,16.705, NaN,NaN,NaN, NaN, NaN
20041121,000807,1583253,32.706616,-117.236263,3.9,16.690,32.939,42.234,140.00,0.0,5.601, NaN, NaN, NaN,24.005,   NaN,16.65,1009.38,73.94,16.32,66.6,62.7,4.2,4.3,195.1,191.2,4.2,4.3,NaN, NaN,26.8,324.9,271.2,1100995689,1100995685,1,0.1,000488,000485,129.0,32.706636,-117.236140,NaN,NaN,NaN,16.694, NaN,NaN,NaN, NaN, NaN
20041121,000839,1583284,32.706618,-117.236267,3.9,16.687,32.897,42.183,137.66,0.0,5.686, NaN, NaN, NaN,23.973,   NaN,16.61,1009.40,73.52,16.29,76.1,72.6,3.7,3.9,204.8,201.3,3.7,3.9,NaN, NaN,26.7,324.9,271.2,1100995719,1100995720,1,0.0,000519,000520,129.1,32.706645,-117.236133,NaN,NaN,NaN,16.691, NaN,NaN,NaN, NaN, NaN
20041121,000908,1583314,32.706615,-117.236263,3.8,16.689,32.941,42.236,135.22,0.0,5.560, NaN, NaN, NaN,24.007,   NaN,16.58,1009.35,73.28,16.21,82.6,79.2,3.6,4.0,211.5,208.2,3.6,4.0,NaN, NaN,27.1,324.9,271.2,1100995749,1100995745,1,0.1,000548,000550,128.4,32.706650,-117.236130,NaN,NaN,NaN,16.693, NaN,NaN,NaN, NaN, NaN
20041121,000938,1583344,32.706613,-117.236260,3.8,16.684,32.928,42.216,132.74,0.0,5.689, NaN, NaN, NaN,23.998,   NaN,16.57,1009.38,73.47,16.28,74.7,71.6,3.9,4.1,203.3,200.3,3.9,4.1,NaN, NaN,27.0,324.9,271.2,1100995779,1100995775,1,0.1,000578,000580,128.4,32.706645,-117.236137,NaN,NaN,NaN,16.688, NaN,NaN,NaN, NaN, NaN
20041121,001007,1583372,32.706611,-117.236262,3.8,16.671,32.940,42.218,130.49,0.0,5.669, NaN, NaN, NaN,24.011,   NaN,16.60,1009.34,73.39,16.21,73.3,70.5,4.0,4.2,201.8,199.0,4.0,4.2,NaN, NaN,26.6,324.9,271.2,1100995809,1100995805,1,0.1,000608,000605,129.0,32.706645,-117.236150,NaN,NaN,NaN,16.675, NaN,NaN,NaN, NaN, NaN
20041121,001039,1583405,32.706613,-117.236268,3.9,16.653,32.930,42.190,127.63,0.0,5.460, NaN, NaN, NaN,24.007,   NaN,16.59,1009.34,73.45,16.28,73.3,71.2,4.2,4.2,202.1,199.9,4.2,4.2,NaN, NaN,26.7,324.9,271.2,1100995839,1100995840,1,0.0,000639,000640,129.0,32.706641,-117.236167,NaN,NaN,NaN,16.657, NaN,NaN,NaN, NaN, NaN
20041121,001108,1583433,32.706611,-117.236272,3.8,16.595,32.951,42.158,124.55,0.0,5.437, NaN, NaN, NaN,24.036,   NaN,16.64,1009.36,73.47,16.21,73.5,72.4,3.8,3.9,202.4,201.4,3.8,3.9,NaN, NaN,26.6,324.9,271.2,1100995869,1100995865,1,0.1,000668,000665,129.0,32.706631,-117.236168,NaN,NaN,NaN,16.599, NaN,NaN,NaN, NaN, NaN
20041121,001138,1583463,32.706615,-117.236270,3.9,16.565,32.962,42.142,121.43,0.0,5.417, NaN, NaN, NaN,24.051,   NaN,16.58,1009.34,73.14,16.24,69.1,67.1,4.0,4.1,198.0,196.0,4.0,4.1,NaN, NaN,26.9,324.9,271.2,1100995899,1100995895,1,0.1,000698,000700,128.7,32.706645,-117.236172,NaN,NaN,NaN,16.569, NaN,NaN,NaN, NaN, NaN
20041121,001207,1583492,32.706615,-117.236263,3.9,16.574,32.941,42.127,120.29,0.0,5.600, NaN, NaN, NaN,24.034,   NaN,16.58,1009.35,73.52,16.21,64.8,61.7,4.4,4.5,193.6,190.5,4.4,4.5,NaN, NaN,26.7,324.9,271.2,1100995929,1100995925,1,0.1,000728,000725,128.8,32.706645,-117.236178,NaN,NaN,NaN,16.578, NaN,NaN,NaN, NaN, NaN
20041121,001239,1583524,32.706615,-117.236263,3.9,16.590,32.958,42.162,119.01,0.0,5.455, NaN, NaN, NaN,24.043,   NaN,16.56,1009.36,73.54,16.24,71.9,69.4,3.7,3.9,200.6,198.1,3.7,3.9,NaN, NaN,27.1,324.9,271.2,1100995959,1100995960,1,0.1,000759,000760,128.9,32.706643,-117.236153,NaN,NaN,NaN,16.594, NaN,NaN,NaN, NaN, NaN
20041121,001308,1583553,32.706613,-117.236267,3.8,16.557,32.968,42.141,117.19,0.0,5.282, NaN, NaN, NaN,24.058,   NaN,16.60,1009.37,73.51,16.24,75.3,73.9,3.1,3.3,204.2,202.8,3.1,3.3,NaN, NaN,26.4,324.9,271.2,1100995989,1100995985,1,0.1,000788,000785,128.9,32.706631,-117.236133,NaN,NaN,NaN,16.561, NaN,NaN,NaN, NaN, NaN
20041121,001338,1583583,32.706613,-117.236270,3.8,16.531,32.969,42.118,115.91,0.0,5.416, NaN, NaN, NaN,24.064,   NaN,16.63,1009.35,73.64,16.28,71.8,69.4,3.4,3.5,200.7,198.3,3.4,3.5,NaN, NaN,26.6,324.9,271.2,1100996019,1100996015,1,0.1,000818,000820,128.7,32.706625,-117.236127,NaN,NaN,NaN,16.535, NaN,NaN,NaN, NaN, NaN
20041121,001407,1583613,32.706615,-117.236268,3.8,16.532,32.958,42.108,114.93,0.0,5.450, NaN, NaN, NaN,24.056,   NaN,16.56,1009.33,73.55,16.28,72.1,69.3,4.0,4.1,200.9,198.1,4.0,4.1,NaN, NaN,26.5,324.9,271.2,1100996049,1100996045,1,0.1,000848,000845,128.8,32.706616,-117.236123,NaN,NaN,NaN,16.536, NaN,NaN,NaN, NaN, NaN
20041121,001439,1583644,32.706616,-117.236265,3.9,16.533,32.964,42.115,114.69,0.0,5.480, NaN, NaN, NaN,24.061,   NaN,16.58,1009.34,73.51,16.21,69.7,65.9,4.8,4.9,198.5,194.7,4.8,4.9,NaN, NaN,26.9,324.9,271.2,1100996079,1100996080,1,0.1,000878,000880,128.9,32.706625,-117.236133,NaN,NaN,NaN,16.537, NaN,NaN,NaN, NaN, NaN
20041121,001508,1583674,32.706616,-117.236263,3.9,16.552,32.957,42.125,113.47,0.0,5.506, NaN, NaN, NaN,24.050,   NaN,16.58,1009.36,73.52,16.24,66.7,63.1,5.0,5.1,195.6,192.1,5.0,5.1,NaN, NaN,26.9,324.9,271.2,1100996109,1100996105,1,0.1,000908,000910,129.0,32.706631,-117.236133,NaN,NaN,NaN,16.556, NaN,NaN,NaN, NaN, NaN
20041121,001538,1583703,32.706610,-117.236268,3.8,16.576,32.954,42.144,115.14,0.0,5.536, NaN, NaN, NaN,24.043,   NaN,16.54,1009.37,73.42,16.24,64.4,60.3,5.5,5.4,193.4,189.3,5.5,5.4,NaN, NaN,26.4,324.9,271.2,1100996139,1100996135,1,0.1,000938,000940,128.7,32.706635,-117.236143,NaN,NaN,NaN,16.580, NaN,NaN,NaN, NaN, NaN
20041121,001607,1583732,32.706610,-117.236268,3.9,16.577,32.937,42.125,124.81,0.0,5.531, NaN, NaN, NaN,24.029,   NaN,16.59,1009.40,73.55,16.24,63.0,59.6,5.2,5.1,191.8,188.4,5.2,5.1,NaN, NaN,26.2,324.9,271.2,1100996169,1100996165,1,0.0,000968,000965,128.5,32.706626,-117.236143,NaN,NaN,NaN,16.581, NaN,NaN,NaN, NaN, NaN
20041121,001639,1583765,32.706613,-117.236268,3.9,16.575,32.956,42.146,118.83,0.0,5.486, NaN, NaN, NaN,24.045,   NaN,16.62,1009.44,73.79,16.24,64.8,63.0,4.2,4.2,193.5,191.7,4.2,4.2,NaN, NaN,26.4,324.9,271.2,1100996199,1100996200,1,0.1,000999,001000,129.1,32.706621,-117.236137,NaN,NaN,NaN,16.579, NaN,NaN,NaN, NaN, NaN
20041121,001708,1583793,32.706613,-117.236268,3.8,16.579,32.956,42.149,121.63,0.0,5.500, NaN, NaN, NaN,24.044,   NaN,16.64,1009.43,74.01,16.24,64.2,63.0,3.8,3.9,193.1,191.8,3.8,3.9,NaN, NaN,26.7,324.9,271.2,1100996229,1100996225,1,0.0,001028,001030,129.0,32.706635,-117.236142,NaN,NaN,NaN,16.583, NaN,NaN,NaN, NaN, NaN
20041121,001738,1583824,32.706610,-117.236265,3.8,16.573,32.958,42.145,127.35,0.0,5.346, NaN, NaN, NaN,24.047,   NaN,16.65,1009.45,74.18,16.24,60.9,58.0,3.9,4.1,189.9,186.9,3.9,4.1,NaN, NaN,27.2,324.9,271.2,1100996259,1100996255,1,0.0,001058,001060,128.5,32.706641,-117.236142,NaN,NaN,NaN,16.577, NaN,NaN,NaN, NaN, NaN
20041121,001807,1583852,32.706610,-117.236263,3.8,16.567,32.937,42.117,130.08,0.0,5.528, NaN, NaN, NaN,24.032,   NaN,16.62,1009.45,74.09,16.24,66.2,63.9,4.2,4.5,194.9,192.6,4.2,4.5,NaN, NaN,27.2,324.9,271.2,1100996289,1100996285,1,0.0,001088,001085,128.8,32.706646,-117.236147,NaN,NaN,NaN,16.571, NaN,NaN,NaN, NaN, NaN
20041121,001839,1583884,32.706608,-117.236263,3.8,16.575,32.951,42.140,130.19,0.0,5.512, NaN, NaN, NaN,24.041,   NaN,16.59,1009.44,73.93,16.24,72.3,70.2,4.9,5.1,200.9,198.7,4.9,5.1,NaN, NaN,27.7,324.9,271.2,1100996319,1100996320,1,0.1,001118,001120,128.6,32.706645,-117.236142,NaN,NaN,NaN,16.579, NaN,NaN,NaN, NaN, NaN
20041121,001908,1583913,32.706611,-117.236265,3.9,16.580,32.945,42.137,128.86,0.0,5.437, NaN, NaN, NaN,24.035,   NaN,16.53,1009.45,73.64,16.21,75.6,72.7,5.1,5.4,204.2,201.4,5.1,5.4,NaN, NaN,27.5,324.9,271.2,1100996349,1100996345,1,0.1,001148,001150,129.2,32.706633,-117.236140,NaN,NaN,NaN,16.584, NaN,NaN,NaN, NaN, NaN
20041121,001938,1583943,32.706611,-117.236263,3.8,16.570,32.888,42.063,127.75,0.0,5.500, NaN, NaN, NaN,23.994,   NaN,16.57,1009.49,73.89,16.24,74.8,72.4,5.0,5.3,203.7,201.3,5.0,5.3,NaN, NaN,27.1,324.9,271.2,1100996379,1100996375,1,0.1,001178,001180,129.1,32.706631,-117.236143,NaN,NaN,NaN,16.574, NaN,NaN,NaN, NaN, NaN
20041121,002007,1583972,32.706610,-117.236268,3.8,16.572,32.956,42.142,124.48,0.0,5.453, NaN, NaN, NaN,24.045,   NaN,16.54,1009.50,73.69,16.28,68.1,65.0,5.0,5.1,197.1,194.0,5.0,5.1,NaN, NaN,26.5,324.9,271.2,1100996409,1100996405,1,0.1,001208,001210,128.4,32.706633,-117.236137,NaN,NaN,NaN,16.576, NaN,NaN,NaN, NaN, NaN
20041121,002039,1584004,32.706610,-117.236272,3.8,16.569,32.948,42.130,119.19,0.0,5.419, NaN, NaN, NaN,24.040,   NaN,16.59,1009.52,74.25,16.21,67.4,63.4,4.7,4.8,196.1,192.1,4.7,4.8,NaN, NaN,26.6,324.9,271.2,1100996439,1100996440,1,0.0,001239,001240,128.9,32.706635,-117.236133,NaN,NaN,NaN,16.573, NaN,NaN,NaN, NaN, NaN
20041121,002108,1584033,32.706610,-117.236273,3.9,16.562,32.962,42.140,113.90,0.0,5.373, NaN, NaN, NaN,24.053,   NaN,16.57,1009.53,74.26,16.28,64.8,61.1,4.4,4.4,193.4,189.7,4.4,4.4,NaN, NaN,26.8,324.9,271.2,1100996469,1100996465,1,0.1,001268,001270,128.9,32.706641,-117.236137,NaN,NaN,NaN,16.566, NaN,NaN,NaN, NaN, NaN
20041121,002138,1584063,32.706611,-117.236272,3.8,16.562,32.950,42.126,109.53,0.0,5.407, NaN, NaN, NaN,24.043,   NaN,16.55,1009.55,74.41,16.21,62.9,58.6,4.2,4.3,191.8,187.6,4.2,4.3,NaN, NaN,26.6,324.9,271.2,1100996499,1100996495,1,0.1,001298,001300,128.8,32.706646,-117.236145,NaN,NaN,NaN,16.566, NaN,NaN,NaN, NaN, NaN
20041121,002207,1584093,32.706608,-117.236265,3.8,16.563,32.959,42.138,106.97,0.0,5.343, NaN, NaN, NaN,24.050,   NaN,16.52,1009.54,73.91,16.24,62.3,58.1,4.6,4.7,191.1,186.9,4.6,4.7,NaN, NaN,26.9,324.9,271.2,1100996529,1100996525,1,0.1,001328,001325,128.4,32.706645,-117.236135,NaN,NaN,NaN,16.567, NaN,NaN,NaN, NaN, NaN
20041121,002239,1584124,32.706610,-117.236263,3.9,16.559,32.946,42.119,103.28,0.0,5.316, NaN, NaN, NaN,24.041,   NaN,16.54,1009.54,74.38,16.24,70.1,66.8,4.5,4.6,198.7,195.5,4.5,4.6,NaN, NaN,26.9,324.9,271.2,1100996559,1100996560,1,0.0,001358,001360,128.9,32.706641,-117.236130,NaN,NaN,NaN,16.563, NaN,NaN,NaN, NaN, NaN
20041121,002308,1584153,32.706610,-117.236267,3.9,16.561,32.953,42.128,100.49,0.0,5.389, NaN, NaN, NaN,24.046,   NaN,16.55,1009.55,74.41,16.21,71.5,68.9,4.0,4.0,200.1,197.5,4.0,4.0,NaN, NaN,26.9,324.9,271.2,1100996589,1100996585,1,0.1,001388,001390,128.6,32.706633,-117.236130,NaN,NaN,NaN,16.565, NaN,NaN,NaN, NaN, NaN
20041121,002338,1584184,32.706615,-117.236263,3.9,16.553,32.952,42.121,98.04,0.0,5.006, NaN, NaN, NaN,24.047,   NaN,16.56,1009.57,74.45,16.28,73.9,70.2,3.6,3.7,202.6,198.9,3.6,3.7,NaN, NaN,27.5,324.9,271.2,1100996619,1100996615,1,0.1,001418,001420,128.7,32.706620,-117.236142,NaN,NaN,NaN,16.557, NaN,NaN,NaN, NaN, NaN
20041121,002408,1584213,32.706616,-117.236262,3.8,16.538,32.951,42.105,95.07,0.0,5.316, NaN, NaN, NaN,24.050,   NaN,16.54,1009.56,74.42,16.24,70.9,66.0,3.7,3.7,199.7,194.8,3.7,3.7,NaN, NaN,28.1,324.9,271.2,1100996649,1100996645,1,0.1,001448,001445,129.2,32.706616,-117.236145,NaN,NaN,NaN,16.542, NaN,NaN,NaN, NaN, NaN
20041121,002439,1584245,32.706613,-117.236263,3.9,16.552,32.937,42.101,92.53,0.0,5.351, NaN, NaN, NaN,24.035,   NaN,16.57,1009.55,74.61,16.24,70.2,65.4,3.5,3.6,199.1,194.3,3.5,3.6,NaN, NaN,27.9,324.9,271.2,1100996679,1100996680,1,0.1,001478,001480,128.8,32.706616,-117.236155,NaN,NaN,NaN,16.556, NaN,NaN,NaN, NaN, NaN
20041121,002508,1584273,32.706611,-117.236265,3.9,16.563,32.946,42.123,90.28,0.0,5.242, NaN, NaN, NaN,24.040,   NaN,16.57,1009.56,74.58,16.24,68.7,64.6,3.5,3.7,197.5,193.4,3.5,3.7,NaN, NaN,27.3,324.9,271.2,1100996709,1100996705,1,0.0,001508,001510,128.3,32.706618,-117.236160,NaN,NaN,NaN,16.567, NaN,NaN,NaN, NaN, NaN
20041121,002538,1584303,32.706611,-117.236268,3.9,16.556,32.956,42.127,87.94,0.0,5.274, NaN, NaN, NaN,24.049,   NaN,16.53,1009.54,74.57,16.24,75.1,73.2,3.6,3.8,203.7,201.9,3.6,3.8,NaN, NaN,27.3,324.9,271.2,1100996739,1100996735,1,0.0,001538,001540,129.0,32.706623,-117.236165,NaN,NaN,NaN,16.560, NaN,NaN,NaN, NaN, NaN
20041121,002607,1584332,32.706615,-117.236270,3.8,16.554,32.953,42.122,85.38,0.0,5.245, NaN, NaN, NaN,24.048,   NaN,16.50,1009.54,74.40,16.28,81.1,79.4,3.5,3.9,209.9,208.1,3.5,3.9,NaN, NaN,26.8,324.9,271.2,1100996769,1100996765,1,0.1,001568,001565,128.8,32.706623,-117.236153,NaN,NaN,NaN,16.558, NaN,NaN,NaN, NaN, NaN
20041121,002639,1584364,32.706615,-117.236272,3.9,16.555,32.949,42.118,82.32,0.0,5.277, NaN, NaN, NaN,24.044,   NaN,16.52,1009.55,74.49,16.21,76.8,74.8,3.4,3.7,205.7,203.7,3.4,3.7,NaN, NaN,26.3,324.9,271.2,1100996799,1100996800,1,0.1,001598,001600,129.0,32.706620,-117.236143,NaN,NaN,NaN,16.559, NaN,NaN,NaN, NaN, NaN
20041121,002708,1584393,32.706613,-117.236268,3.9,16.562,32.934,42.108,79.83,0.0,5.274, NaN, NaN, NaN,24.031,   NaN,16.54,1009.53,74.46,16.24,74.1,72.6,3.3,3.5,203.1,201.5,3.3,3.5,NaN, NaN,26.4,324.9,271.2,1100996829,1100996825,1,0.1,001628,001630,129.2,32.706623,-117.236140,NaN,NaN,NaN,16.566, NaN,NaN,NaN, NaN, NaN
20041121,002738,1584423,32.706611,-117.236265,3.9,16.557,32.958,42.131,77.58,0.0,5.228, NaN, NaN, NaN,24.050,   NaN,16.52,1009.55,74.47,16.21,73.4,71.7,3.0,3.2,202.4,200.7,3.0,3.2,NaN, NaN,27.2,324.9,271.2,1100996859,1100996855,1,0.1,001658,001660,128.6,32.706630,-117.236143,NaN,NaN,NaN,16.561, NaN,NaN,NaN, NaN, NaN
20041121,002807,1584453,32.706613,-117.236262,3.9,16.552,32.943,42.109,75.49,0.0,5.270, NaN, NaN, NaN,24.040,   NaN,16.55,1009.54,74.43,16.24,70.5,67.3,3.2,3.4,199.4,196.2,3.2,3.4,NaN, NaN,28.1,324.9,271.2,1100996889,1100996885,1,0.0,001688,001685,129.1,32.706633,-117.236142,NaN,NaN,NaN,16.556, NaN,NaN,NaN, NaN, NaN
20041121,002839,1584484,32.706613,-117.236262,3.8,16.561,32.947,42.121,72.50,0.0,5.263, NaN, NaN, NaN,24.041,   NaN,16.52,1009.55,74.55,16.21,67.6,63.9,3.4,3.4,196.4,192.7,3.4,3.4,NaN, NaN,28.3,324.9,271.2,1100996919,1100996920,1,0.0,001718,001720,128.4,32.706638,-117.236155,NaN,NaN,NaN,16.565, NaN,NaN,NaN, NaN, NaN
20041121,002908,1584514,32.706615,-117.236258,3.8,16.559,32.947,42.120,70.31,0.0,5.293, NaN, NaN, NaN,24.042,   NaN,16.47,1009.54,74.41,16.28,69.5,65.6,3.8,3.9,198.2,194.3,3.8,3.9,NaN, NaN,28.3,324.9,271.2,1100996949,1100996945,1,0.1,001748,001750,128.6,32.706630,-117.236148,NaN,NaN,NaN,16.563, NaN,NaN,NaN, NaN, NaN
20041121,002938,1584543,32.706616,-117.236263,3.9,16.564,32.942,42.118,67.18,0.0,5.261, NaN, NaN, NaN,24.036,   NaN,16.49,1009.54,74.45,16.21,74.6,71.3,3.5,3.6,203.3,200.0,3.5,3.6,NaN, NaN,27.3,324.9,271.2,1100996979,1100996975,1,0.1,001778,001780,129.4,32.706623,-117.236155,NaN,NaN,NaN,16.568, NaN,NaN,NaN, NaN, NaN
20041121,003007,1584572,32.706611,-117.236265,3.9,16.568,32.947,42.129,64.68,0.0,5.284, NaN, NaN, NaN,24.039,   NaN,16.51,1009.54,74.46,16.24,75.9,74.4,3.1,3.3,204.8,203.3,3.1,3.3,NaN, NaN,26.2,324.9,271.2,1100997009,1100997005,1,0.1,001808,001805,128.8,32.706625,-117.236155,NaN,NaN,NaN,16.572, NaN,NaN,NaN, NaN, NaN
20041121,003039,1584605,32.706610,-117.236263,3.9,16.570,32.938,42.120,61.24,0.0,5.268, NaN, NaN, NaN,24.032,   NaN,16.54,1009.54,74.69,16.21,72.8,71.2,2.9,3.1,201.7,200.0,2.9,3.1,NaN, NaN,25.8,324.9,271.2,1100997039,1100997040,1,0.1,001838,001840,128.4,32.706608,-117.236145,NaN,NaN,NaN,16.574, NaN,NaN,NaN, NaN, NaN
20041121,003108,1584633,32.706611,-117.236267,3.9,16.572,32.940,42.125,58.03,0.0,5.292, NaN, NaN, NaN,24.034,   NaN,16.48,1009.54,74.47,16.24,71.5,68.6,2.9,3.1,200.1,197.2,2.9,3.1,NaN, NaN,25.2,324.9,271.2,1100997069,1100997065,1,0.1,001868,001865,128.7,32.706596,-117.236155,NaN,NaN,NaN,16.576, NaN,NaN,NaN, NaN, NaN
20041121,003138,1584664,32.706613,-117.236272,3.8,16.574,32.940,42.126,54.98,0.0,5.243, NaN, NaN, NaN,24.033,   NaN,16.49,1009.53,74.51,16.24,75.0,70.6,3.4,3.7,203.7,199.3,3.4,3.7,NaN, NaN,25.8,324.9,271.2,1100997099,1100997095,1,0.1,001898,001900,129.1,32.706600,-117.236167,NaN,NaN,NaN,16.578, NaN,NaN,NaN, NaN, NaN
20041121,003207,1584692,32.706615,-117.236265,3.8,16.574,32.839,42.010,51.76,0.0,5.237, NaN, NaN, NaN,23.955,   NaN,16.47,1009.54,74.41,16.21,71.6,68.0,3.9,4.1,200.5,196.9,3.9,4.1,NaN, NaN,26.7,324.9,271.2,1100997129,1100997125,1,0.1,001928,001925,128.7,32.706605,-117.236168,NaN,NaN,NaN,16.578, NaN,NaN,NaN, NaN, NaN
20041121,003239,1584724,32.706615,-117.236258,3.8,16.574,32.945,42.131,48.60,0.0,5.209, NaN, NaN, NaN,24.036,   NaN,16.47,1009.53,74.41,16.24,66.4,62.5,4.9,5.0,195.2,191.3,4.9,5.0,NaN, NaN,27.8,324.9,271.2,1100997159,1100997155,1,0.1,001959,001960,128.5,32.706620,-117.236162,NaN,NaN,NaN,16.578, NaN,NaN,NaN, NaN, NaN
20041121,003308,1584753,32.706615,-117.236258,3.9,16.572,32.939,42.123,46.59,0.0,5.238, NaN, NaN, NaN,24.033,   NaN,16.46,1009.53,74.60,16.21,66.0,62.0,5.5,5.5,194.6,190.6,5.5,5.5,NaN, NaN,27.9,324.9,271.2,1100997189,1100997185,1,0.1,001988,001990,128.5,32.706623,-117.236150,NaN,NaN,NaN,16.576, NaN,NaN,NaN, NaN, NaN
20041121,003338,1584783,32.706613,-117.236263,3.9,16.558,32.944,42.115,44.48,0.0,4.895, NaN, NaN, NaN,24.039,   NaN,16.48,1009.56,74.70,16.21,68.3,64.6,5.3,5.4,196.8,193.2,5.3,5.4,NaN, NaN,27.8,324.9,271.2,1100997219,1100997215,1,0.1,002018,002020,128.6,32.706623,-117.236137,NaN,NaN,NaN,16.562, NaN,NaN,NaN, NaN, NaN
20041121,003408,1584813,32.706628,-117.236265,3.9,16.519,32.960,42.097,42.22,0.0,4.984, NaN, NaN, NaN,24.061,   NaN,16.46,1009.57,74.84,16.21,69.5,65.6,4.6,4.7,198.2,194.3,4.6,4.7,NaN, NaN,28.0,324.9,271.2,1100997249,1100997245,1,0.1,002048,002045,129.2,32.706623,-117.236138,NaN,NaN,NaN,16.523, NaN,NaN,NaN, NaN, NaN
20041121,003439,1584844,32.706621,-117.236265,3.9,16.520,32.954,42.091,40.26,0.0,5.076, NaN, NaN, NaN,24.056,   NaN,16.47,1009.57,74.84,16.21,66.6,62.2,4.3,4.4,195.5,191.2,4.3,4.4,NaN, NaN,27.5,324.9,271.2,1100997279,1100997280,1,0.1,002078,002080,128.8,32.706635,-117.236148,NaN,NaN,NaN,16.524, NaN,NaN,NaN, NaN, NaN
20041121,003508,1584874,32.706621,-117.236262,3.9,16.521,32.956,42.095,38.88,0.0,4.992, NaN, NaN, NaN,24.057,   NaN,16.47,1009.57,74.89,16.21,65.6,61.3,4.6,4.7,194.5,190.2,4.6,4.7,NaN, NaN,27.8,324.9,271.2,1100997309,1100997305,1,0.0,002108,002110,128.4,32.706635,-117.236145,NaN,NaN,NaN,16.525, NaN,NaN,NaN, NaN, NaN
20041121,003538,1584903,32.706623,-117.236260,3.9,16.524,32.956,42.097,37.64,0.0,5.263, NaN, NaN, NaN,24.056,   NaN,16.48,1009.60,74.92,16.21,64.6,60.3,4.9,4.9,193.2,188.9,4.9,4.9,NaN, NaN,28.4,324.9,271.2,1100997339,1100997335,1,0.0,002138,002140,128.7,32.706628,-117.236143,NaN,NaN,NaN,16.528, NaN,NaN,NaN, NaN, NaN
20041121,003607,1584933,32.706623,-117.236258,3.9,16.542,32.956,42.115,35.87,0.0,5.191, NaN, NaN, NaN,24.052,   NaN,16.47,1009.59,75.28,16.24,62.5,57.9,4.6,4.5,191.1,186.6,4.6,4.5,NaN, NaN,28.8,324.9,271.2,1100997369,1100997365,1,0.1,002168,002165,129.1,32.706626,-117.236138,NaN,NaN,NaN,16.546, NaN,NaN,NaN, NaN, NaN
20041121,003639,1584964,32.706623,-117.236265,3.9,16.564,32.946,42.123,33.60,0.0,5.453, NaN, NaN, NaN,24.040,   NaN,16.47,1009.61,75.15,16.18,64.8,60.9,4.0,4.1,193.8,189.8,4.0,4.1,NaN, NaN,29.3,324.9,271.2,1100997399,1100997400,1,0.0,002199,002200,128.9,32.706625,-117.236143,NaN,NaN,NaN,16.568, NaN,NaN,NaN, NaN, NaN
20041121,003708,1584993,32.706621,-117.236268,3.9,16.590,32.943,42.145,32.32,0.0,5.635, NaN, NaN, NaN,24.031,   NaN,16.47,1009.57,75.33,16.18,65.8,62.5,4.2,4.3,194.7,191.5,4.2,4.3,NaN, NaN,28.5,324.9,271.2,1100997429,1100997425,1,0.1,002228,002230,128.9,32.706616,-117.236138,NaN,NaN,NaN,16.594, NaN,NaN,NaN, NaN, NaN